Cape Byron Observation History
Time Wind Speed Temp Pressure Rel. Hum Rain
04/06:30am SSW 16-24 kts 12.8°c 1026.7 hPa 65% 0.0mm
04/06:00am SW 15-21 kts 12.2°c 1026.4 hPa 65% 0.0mm
04/05:30am SW 15-21 kts 12.6°c 1025.9 hPa 63% 0.0mm
04/05:00am SSW 18-24 kts 13.5°c 1025.5 hPa 59% 0.0mm
04/04:30am SSW 18-24 kts 13.9°c 1025.3 hPa 56% 0.0mm
04/04:00am SSW 19-26 kts 13.9°c 1025.1 hPa 56% 0.0mm
04/03:30am SSW 20-27 kts 14.1°c 1025.3 hPa 54% 0.0mm
04/03:00am SSW 19-25 kts 13.8°c 1025.3 hPa 53% 0.0mm
04/02:30am SSW 19-27 kts 13.8°c 1025.4 hPa 53% 0.0mm
04/02:00am SSW 18-23 kts 13.7°c 1025.4 hPa 58% 0.0mm
04/01:30am SSW 19-25 kts 14.1°c 1025.4 hPa 60% 0.0mm
04/01:00am SSW 17-21 kts 13.3°c 1025.5 hPa 68% 0.0mm
04/12:30am SW 15-19 kts 13.4°c 1025.5 hPa 68% 0.0mm
04/12:00am SW 17-21 kts 13.7°c 1025.5 hPa 66% 0.0mm
Time Wind Speed Temp Pressure Rel. Hum Rain
03/11:30pm SW 15-20 kts 13.5°c 1025.5 hPa 67% 0.0mm
03/11:00pm SSW 17-25 kts 13.9°c 1025.6 hPa 65% 0.0mm
03/10:30pm SW 18-21 kts 14.2°c 1025.6 hPa 64% 0.0mm
03/10:00pm SW 17-21 kts 14.5°c 1025.5 hPa 63% 0.0mm
03/09:30pm SSW 15-19 kts 15.0°c 1025.3 hPa 61% 0.0mm
03/09:03pm S 17-27 kts 17.2°c 1025.1 hPa 52% 0.0mm
03/09:00pm S 21-28 kts 18.4°c 1025.2 hPa 51% 0.0mm
03/08:30pm S 22-28 kts 18.5°c 1024.8 hPa 51% 0.0mm
03/08:00pm S 23-29 kts 18.3°c 1024.8 hPa 55% 0.0mm
03/07:30pm S 23-27 kts 18.3°c 1024.4 hPa 55% 0.0mm
03/07:00pm SSE 22-28 kts 18.2°c 1023.9 hPa 57% 0.0mm
03/06:30pm SSE 19-24 kts 17.8°c 1023.5 hPa 62% 0.0mm
03/06:00pm SSE 20-25 kts 17.6°c 1023.0 hPa 61% 0.0mm
03/05:30pm S 20-26 kts 17.6°c 1022.4 hPa 62% 0.0mm
03/05:00pm S 17-24 kts 17.3°c 1022.0 hPa 61% 0.0mm
03/04:30pm S 19-25 kts 17.0°c 1021.6 hPa 60% 0.0mm
03/04:00pm S 20-25 kts 17.0°c 1021.3 hPa 55% 0.0mm
03/03:30pm S 20-25 kts 17.1°c 1020.9 hPa 53% 0.0mm
03/03:00pm SSE 18-22 kts 17.1°c 1020.8 hPa 53% 0.0mm
03/02:30pm SSE 14-17 kts 17.2°c 1020.4 hPa 51% 0.0mm
03/02:00pm SSE 11-15 kts 17.4°c 1020.2 hPa 49% 0.0mm
03/01:30pm SSE 10-13 kts 17.4°c 1020.3 hPa 45% 0.0mm
03/01:00pm S 9-13 kts 17.5°c 1020.3 hPa 43% 0.0mm
03/12:30pm SSW 11-15 kts 17.2°c 1020.6 hPa 46% 0.0mm
03/12:00pm SSW 10-15 kts 16.8°c 1021.0 hPa 42% 0.0mm
03/11:30am SSW 9-11 kts 16.6°c 1021.4 hPa 44% 0.0mm
03/11:00am SW 12-15 kts 15.8°c 1021.5 hPa 43% 0.0mm
03/10:30am SW 13-17 kts 15.3°c 1021.7 hPa 45% 0.0mm
03/10:00am SW 12-17 kts 14.7°c 1021.8 hPa 45% 0.0mm
03/09:30am SW 12-17 kts 14.0°c 1021.6 hPa 49% 0.0mm
03/09:00am WSW 13-17 kts 13.3°c 1021.5 hPa 50% 0.0mm
03/08:30am WSW 13-19 kts 12.6°c 1021.1 hPa 50% 0.0mm
03/08:00am WSW 15-19 kts 12.3°c 1020.8 hPa 50% 0.0mm
03/07:30am WSW 16-21 kts 12.2°c 1020.6 hPa 50% 0.0mm
03/07:00am WSW 17-21 kts 11.6°c 1020.4 hPa 50% 0.0mm
03/06:30am WSW 16-20 kts 11.3°c 1020.1 hPa 51% 0.0mm
03/06:00am WSW 16-20 kts 11.4°c 1019.5 hPa 52% 0.0mm
03/05:30am W 17-20 kts 10.9°c 1019.3 hPa 53% 0.0mm
03/05:00am WSW 17-21 kts 11.0°c 1018.9 hPa 53% 0.0mm
03/04:30am WSW 18-22 kts 11.2°c 1018.5 hPa 52% 0.0mm
03/04:00am W 17-22 kts 11.2°c 1018.4 hPa 52% 0.0mm
03/03:30am W 17-22 kts 11.1°c 1018.3 hPa 53% 0.0mm
03/03:00am WSW 17-25 kts 11.4°c 1018.1 hPa 51% 0.0mm
03/02:30am W 18-23 kts 11.6°c 1018.2 hPa 51% 0.0mm
03/02:00am W 13-17 kts 11.5°c 1018.3 hPa 52% 0.0mm
03/01:30am W 14-20 kts 11.7°c 1018.4 hPa 51% 0.0mm
03/01:00am W 17-25 kts 12.2°c 1018.5 hPa 50% 0.0mm
03/12:30am W 19-27 kts 12.3°c 1018.5 hPa 49% 0.0mm
03/12:00am W 19-28 kts 12.4°c 1018.7 hPa 49% 0.0mm
Time Wind Speed Temp Pressure Rel. Hum Rain
02/11:30pm W 19-26 kts 12.5°c 1018.8 hPa 48% 0.0mm
02/11:28pm W 19-29 kts 12.6°c 1018.8 hPa 48% 0.0mm
02/11:00pm W 18-25 kts 12.8°c 1019.0 hPa 47% 0.0mm
02/10:37pm W 18-28 kts 12.8°c 1018.8 hPa 47% 0.0mm
02/10:30pm W 19-26 kts 12.7°c 1018.8 hPa 47% 0.0mm
02/10:00pm W 17-24 kts 12.6°c 1018.8 hPa 47% 0.0mm
02/09:30pm W 16-24 kts 12.7°c 1018.9 hPa 48% 0.0mm
02/09:00pm W 13-20 kts 13.0°c 1019.0 hPa 47% 0.0mm
02/08:30pm W 13-19 kts 13.3°c 1019.1 hPa 46% 0.0mm
02/08:00pm WNW 12-19 kts 13.5°c 1018.8 hPa 45% 0.0mm
02/07:30pm WNW 12-18 kts 13.6°c 1018.6 hPa 47% 0.0mm
02/07:00pm WNW 11-17 kts 13.5°c 1018.1 hPa 48% 0.0mm
02/06:30pm WNW 10-15 kts 13.7°c 1017.6 hPa 48% 0.0mm
02/06:00pm WNW 7-12 kts 13.9°c 1017.2 hPa 46% 0.0mm
02/05:30pm WNW 8-12 kts 14.6°c 1016.8 hPa 47% 0.0mm
02/05:00pm WNW 10-14 kts 15.2°c 1016.3 hPa 41% 0.0mm
02/04:30pm W 9-16 kts 16.0°c 1016.1 hPa 40% 0.0mm
02/04:00pm W 9-15 kts 16.5°c 1015.8 hPa 39% 0.0mm
02/03:30pm WSW 11-16 kts 16.9°c 1015.6 hPa 35% 0.0mm
02/03:00pm WSW 12-18 kts 17.2°c 1015.4 hPa 33% 0.0mm
02/02:30pm WSW 13-24 kts 17.2°c 1015.4 hPa 37% 0.0mm
02/02:08pm WSW 16-26 kts 16.9°c 1015.4 hPa 33% 0.0mm
02/02:00pm WSW 14-19 kts 17.2°c 1015.4 hPa 33% 0.0mm
02/01:51pm WSW 16-26 kts 16.9°c 1015.4 hPa 33% 0.0mm
02/01:30pm W 15-22 kts 17.0°c 1015.7 hPa 31% 0.0mm
02/01:00pm W 15-23 kts 16.7°c 1015.9 hPa 33% 0.0mm
02/12:30pm W 13-20 kts 16.5°c 1016.0 hPa 39% 0.0mm
02/12:00pm W 10-16 kts 16.2°c 1016.5 hPa 38% 0.0mm
02/11:30am W 15-26 kts 15.7°c 1016.7 hPa 41% 0.0mm
02/11:15am W 19-29 kts 15.1°c 1017.0 hPa 39% 0.0mm
02/11:00am W 19-28 kts 15.1°c 1016.9 hPa 39% 0.0mm
02/10:57am W 17-28 kts 15.1°c 1016.9 hPa 40% 0.0mm
02/10:34am WSW 17-27 kts 14.5°c 1017.1 hPa 43% 0.0mm
02/10:30am SW 18-26 kts 14.4°c 1017.1 hPa 45% 0.0mm
02/10:00am WSW 21-32 kts 14.0°c 1017.0 hPa 41% 0.0mm
02/09:38am WSW 15-26 kts 13.9°c 1017.5 hPa 45% 0.0mm
02/09:30am WSW 17-26 kts 13.7°c 1017.7 hPa 47% 0.0mm
02/09:05am WSW 16-28 kts 13.5°c 1017.8 hPa 46% 0.0mm
02/09:00am WSW 15-23 kts 13.4°c 1017.7 hPa 49% 0.4mm
02/08:30am SW 12-17 kts 13.4°c 1017.6 hPa 54% 0.4mm
02/08:00am WSW 14-18 kts 13.0°c 1017.4 hPa 60% 0.4mm
02/07:30am SSW 7-11 kts 13.2°c 1017.2 hPa 60% 0.4mm
02/07:00am WNW 8-12 kts 13.6°c 1016.5 hPa 59% 0.4mm
02/06:30am W 11-16 kts 14.0°c 1015.9 hPa 56% 0.4mm
02/06:00am W 13-20 kts 14.4°c 1015.3 hPa 57% 0.4mm
02/05:30am W 14-20 kts 15.1°c 1015.1 hPa 55% 0.4mm
02/05:00am W 12-21 kts 15.6°c 1014.7 hPa 53% 0.4mm
02/04:30am W 11-14 kts 15.6°c 1014.6 hPa 52% 0.4mm
02/04:00am WNW 11-16 kts 16.0°c 1014.3 hPa 50% 0.4mm
02/03:30am WNW 6-10 kts 16.2°c 1014.1 hPa 57% 0.4mm
02/03:00am WNW 8-14 kts 16.1°c 1014.1 hPa 62% 0.4mm
02/02:30am WNW 11-17 kts 16.6°c 1014.1 hPa 62% 0.4mm
02/02:00am WNW 13-19 kts 16.7°c 1013.9 hPa 72% 0.4mm
02/01:30am WNW 9-14 kts 16.8°c 1013.8 hPa 86% 0.4mm
02/01:00am WNW 7-11 kts 16.4°c 1013.7 hPa 99% 0.4mm
02/12:30am WNW 6-9 kts 16.8°c 1013.7 hPa 99% 0.4mm
02/12:00am NNW 4-6 kts 17.1°c 1013.8 hPa 99% 0.4mm